STARLINK-4586 (53636 NORAD) Tracking and Keplerian Element Data

This shows tracking and keplerian element data for the satellite.

Feedback or suggestion? Click here.




ElementValue
Catalog53636
NameSTARLINK-4586
Epoch Orbit130
Epoch Day324.91667824
Epoch Year2022
RAAN232.6785
Inclination53.2177
Eccentricity0.0001436
Argument of Perigee48.6631
Mean Anonmoly310.209
Mean Motion15.23364648
Decay Rate-0.01150598
L11 53636U 22104BA 22324.91667824 -.01150598 00000+0 -51801-1 0 9994
L22 53636 53.2177 232.6785 0001436 48.6631 310.2090 15.23364648 1306



Live tracking and technical data element details for STARLINK-4586 (NORAD 53636). STARLINK-4586 can be tracked NOW for your location showing map with azimuth and elevation plus other details from your city location.







IsCatalogInMostPopularTable: catalog: 53636, numindb: 9
Update: records affected: 1



GetName: 53636 STARLINK-4586

Hit Count: updated at: Thu, 08 Dec 2022 20:54:13 GMT